| time (UTC) | temp C | wind direction | speed KPH | gust KPH | rain 1hr cm | rain 24hr cm | rain mn cm | humidity % | barometer mb |
| 20260906012023 | 26 | 102 | 0.0 | 0.0 | 0.00 | 0.94 | 0.94 | 93 | 1012.0 |
| 20260906011519 | 26 | 102 | 0.0 | 0.0 | 0.00 | 0.94 | 0.94 | 93 | 1012.0 |
| 20260906011019 | 26 | 102 | 0.0 | 0.0 | 0.00 | 0.94 | 0.94 | 93 | 1012.1 |
| 20260906010514 | 26 | 102 | 0.0 | 0.0 | 0.00 | 0.94 | 0.94 | 93 | 1012.0 |
| 20260906010011 | 26 | 102 | 0.0 | 0.0 | 0.00 | 0.94 | 0.94 | 93 | 1011.8 |
| 20260906005510 | 26 | 102 | 0.0 | 0.0 | 0.00 | 0.94 | 0.94 | 93 | 1011.9 |
| 20260906005009 | 26 | 102 | 0.0 | 0.0 | 0.00 | 0.94 | 0.94 | 93 | 1012.1 |
| 20260906004508 | 26 | 103 | 0.0 | 0.0 | 0.00 | 0.94 | 0.94 | 92 | 1012.2 |
| 20260906004003 | 26 | 103 | 0.0 | 0.0 | 0.00 | 0.94 | 0.94 | 92 | 1012.1 |
| 20260906003459 | 27 | 103 | 0.0 | 0.0 | 0.00 | 0.94 | 0.94 | 92 | 1012.0 |
| 20260906002954 | 27 | 100 | 0.0 | 0.0 | 0.00 | 0.94 | 0.94 | 91 | 1011.9 |
| 20260906002454 | 27 | 98 | 0.0 | 0.0 | 0.00 | 0.94 | 0.94 | 91 | 1012.0 |
| 20260906001949 | 27 | 98 | 0.0 | 0.0 | 0.00 | 0.94 | 0.94 | 91 | 1011.8 |
| 20260906001445 | 27 | 106 | 0.0 | 0.0 | 0.00 | 0.94 | 0.94 | 91 | 1011.8 |
| 20260906000939 | 27 | 99 | 0.0 | 0.0 | 0.00 | 0.94 | 0.94 | 90 | 1012.0 |
| 20260906000435 | 27 | 102 | 0.0 | 0.0 | 0.00 | 0.94 | 0.94 | 90 | 1012.0 |
| 20260905235925 | 27 | 102 | 0.0 | 0.0 | 0.00 | 0.94 | 0.94 | 89 | 1012.0 |
| 20260905235424 | 27 | 100 | 0.0 | 0.0 | 0.00 | 0.94 | 0.94 | 89 | 1011.9 |
| 20260905234919 | 27 | 102 | 0.0 | 0.0 | 0.00 | 0.94 | 0.94 | 88 | 1011.9 |
| 20260905234414 | 27 | 100 | 0.0 | 0.0 | 0.00 | 0.94 | 0.94 | 88 | 1011.9 |
| 20260905233909 | 28 | 109 | 0.0 | 0.0 | 0.00 | 0.94 | 0.94 | 88 | 1011.7 |
| 20260905233404 | 28 | 99 | 0.0 | 1.6 | 0.00 | 0.94 | 0.94 | 87 | 1011.9 |
| 20260905232903 | 28 | 90 | 0.0 | 1.6 | 0.00 | 0.94 | 0.94 | 87 | 1011.9 |
| 20260905232400 | 28 | 95 | 0.0 | 0.0 | 0.00 | 0.94 | 0.94 | 88 | 1011.8 |
| 20260905231855 | 28 | 97 | 0.0 | 0.0 | 0.00 | 0.94 | 0.94 | 87 | 1011.8 |
| 20260905231350 | 28 | 96 | 0.0 | 0.0 | 0.00 | 0.94 | 0.94 | 88 | 1011.9 |
| 20260905230847 | 28 | 104 | 0.0 | 0.0 | 0.00 | 0.94 | 0.94 | 88 | 1011.9 |
| 20260905230344 | 28 | 104 | 0.0 | 0.0 | 0.00 | 0.94 | 0.94 | 88 | 1011.9 |
| 20260905225843 | 28 | 107 | 0.0 | 0.0 | 0.00 | 0.94 | 0.94 | 88 | 1011.8 |
| 20260905225338 | 28 | 95 | 0.0 | 0.0 | 0.00 | 0.94 | 0.94 | 88 | 1011.7 |
| 20260905224833 | 28 | 107 | 0.0 | 0.0 | 0.00 | 0.94 | 0.94 | 86 | 1011.8 |
| 20260905224329 | 29 | 106 | 0.0 | 0.0 | 0.00 | 0.94 | 0.94 | 85 | 1011.8 |
| 20260905223824 | 30 | 107 | 0.0 | 0.0 | 0.00 | 0.94 | 0.94 | 83 | 1011.7 |
| 20260905223321 | 30 | 98 | 0.0 | 0.0 | 0.00 | 0.94 | 0.94 | 83 | 1012.0 |
| 20260905222816 | 30 | 104 | 0.0 | 0.0 | 0.00 | 0.94 | 0.94 | 81 | 1012.1 |
| 20260905222315 | 29 | 100 | 0.0 | 1.6 | 0.00 | 0.94 | 0.94 | 83 | 1012.1 |
| 20260905221811 | 29 | 109 | 0.0 | 0.0 | 0.00 | 0.94 | 0.94 | 82 | 1012.2 |
| 20260905221308 | 30 | 109 | 0.0 | 1.6 | 0.00 | 0.94 | 0.94 | 80 | 1012.2 |
| 20260905220803 | 30 | 103 | 0.0 | 0.0 | 0.00 | 0.94 | 0.94 | 79 | 1012.1 |
| 20260905220259 | 30 | 102 | 0.0 | 0.0 | 0.00 | 0.94 | 0.94 | 80 | 1012.3 |
| 20260905215758 | 30 | 244 | 1.6 | 3.2 | 0.00 | 0.94 | 0.94 | 77 | 1012.2 |
| 20260905215254 | 31 | 146 | 0.0 | 1.6 | 0.00 | 0.94 | 0.94 | 79 | 1012.1 |
| 20260905214750 | 31 | 165 | 1.6 | 3.2 | 0.00 | 0.94 | 0.94 | 81 | 1012.2 |
| 20260905214246 | 31 | 129 | 1.6 | 3.2 | 0.00 | 0.94 | 0.94 | 81 | 1012.4 |
| 20260905213741 | 30 | 96 | 0.0 | 0.0 | 0.00 | 0.94 | 0.94 | 81 | 1012.4 |
| 20260905213237 | 30 | 39 | 1.6 | 3.2 | 0.00 | 0.94 | 0.94 | 78 | 1012.3 |
| 20260905212732 | 30 | 232 | 1.6 | 1.6 | 0.00 | 0.94 | 0.94 | 81 | 1012.5 |
| 20260905212231 | 30 | 111 | 0.0 | 1.6 | 0.00 | 0.94 | 0.94 | 83 | 1012.5 |
| 20260905211730 | 28 | 15 | 0.0 | 1.6 | 0.00 | 0.94 | 0.94 | 86 | 1012.4 |
| 20260905211226 | 28 | 93 | 0.0 | 0.0 | 0.00 | 0.94 | 0.94 | 86 | 1012.6 |
| 20260905210723 | 28 | 104 | 0.0 | 3.2 | 0.00 | 0.94 | 0.94 | 82 | 1012.6 |
| 20260905210222 | 29 | 283 | 3.2 | 4.8 | 0.00 | 0.94 | 0.94 | 82 | 1012.4 |
| 20260905205721 | 29 | 100 | 1.6 | 3.2 | 0.00 | 0.94 | 0.94 | 87 | 1012.4 |
| 20260905205216 | 28 | 164 | 0.0 | 4.8 | 0.00 | 0.94 | 0.94 | 88 | 1012.4 |
| 20260905204717 | 28 | 310 | 4.8 | 4.8 | 0.00 | 0.94 | 0.94 | 88 | 1012.4 |
| 20260905204212 | 28 | 354 | 3.2 | 3.2 | 0.00 | 0.94 | 0.94 | 93 | 1012.4 |
| 20260905203711 | 27 | 112 | 0.0 | 3.2 | 0.00 | 0.94 | 0.94 | 95 | 1012.3 |
| 20260905203207 | 27 | 200 | 1.6 | 3.2 | 0.00 | 0.94 | 0.94 | 95 | 1012.5 |
| 20260905202703 | 26 | 171 | 0.0 | 3.2 | 0.00 | 0.94 | 0.94 | 96 | 1012.5 |
| 20260905202157 | 26 | 185 | 3.2 | 3.2 | 0.00 | 0.94 | 0.94 | 96 | 1012.6 |
| 20260905201653 | 26 | 101 | 0.0 | 0.0 | 0.00 | 0.94 | 0.94 | 96 | 1012.7 |
| 20260905201153 | 26 | 128 | 0.0 | 0.0 | 0.00 | 0.94 | 0.94 | 96 | 1012.8 |
| 20260905200648 | 26 | 95 | 0.0 | 0.0 | 0.18 | 0.94 | 0.94 | 96 | 1012.9 |
| 20260905200144 | 26 | 96 | 0.0 | 0.0 | 0.18 | 0.94 | 0.94 | 96 | 1012.8 |
| 20260905195642 | 26 | 64 | 0.0 | 0.0 | 0.13 | 0.91 | 0.91 | 96 | 1013.0 |
| 20260905195137 | 26 | 91 | 0.0 | 0.0 | 0.30 | 0.91 | 0.91 | 96 | 1013.2 |
| 20260905194632 | 26 | 95 | 0.0 | 1.6 | 0.00 | 0.86 | 0.86 | 96 | 1013.2 |
| 20260905194131 | 25 | 89 | 0.0 | 3.2 | 0.13 | 0.86 | 0.86 | 95 | 1013.1 |
| 20260905193627 | 25 | 103 | 0.0 | 0.0 | 0.43 | 0.86 | 0.86 | 95 | 1013.2 |
| 20260905193126 | 25 | 97 | 0.0 | 0.0 | 0.61 | 0.84 | 0.84 | 94 | 1013.2 |
| 20260905192622 | 25 | 75 | 0.0 | 1.6 | 2.16 | 0.79 | 0.79 | 94 | 1013.4 |
| 20260905192119 | 25 | 116 | 3.2 | 3.2 | 2.11 | 0.71 | 0.71 | 92 | 1013.5 |
| 20260905191617 | 25 | 89 | 1.6 | 3.2 | 2.29 | 0.43 | 0.43 | 91 | 1013.6 |
| 20260905191116 | 26 | 68 | 1.6 | 3.2 | 1.68 | 0.30 | 0.30 | 88 | 1013.6 |
| 20260905190614 | 26 | 78 | 0.0 | 3.2 | 0.13 | 0.05 | 0.05 | 87 | 1013.5 |
| 20260905190114 | 26 | 88 | 1.6 | 3.2 | 0.00 | 0.03 | 0.03 | 87 | 1013.6 |
| 20260905185613 | 27 | 82 | 0.0 | 3.2 | 0.00 | 0.03 | 0.03 | 88 | 1013.5 |
| 20260905185108 | 28 | 95 | 0.0 | 1.6 | 0.18 | 0.03 | 0.03 | 87 | 1013.8 |
| 20260905184602 | 29 | 94 | 0.0 | 0.0 | 0.18 | 0.03 | 0.03 | 85 | 1013.6 |
| 20260905184101 | 30 | 143 | 0.0 | 1.6 | 0.00 | 0.00 | 0.00 | 78 | 1013.8 |
| 20260905183601 | 30 | 265 | 3.2 | 6.4 | 0.00 | 0.00 | 0.00 | 77 | 1013.7 |
| 20260905183056 | 30 | 115 | 0.0 | 0.0 | 0.00 | 0.00 | 0.00 | 77 | 1013.8 |
| 20260905182550 | 30 | 99 | 0.0 | 0.0 | 0.00 | 0.00 | 0.00 | 77 | 1013.8 |
| 20260905182050 | 30 | 87 | 0.0 | 0.0 | 0.00 | 0.00 | 0.00 | 77 | 1013.8 |
| 20260905181544 | 30 | 95 | 0.0 | 1.6 | 0.00 | 0.00 | 0.00 | 77 | 1013.9 |
| 20260905181039 | 30 | 76 | 1.6 | 1.6 | 0.00 | 0.00 | 0.00 | 77 | 1013.9 |
| 20260905180538 | 30 | 132 | 1.6 | 1.6 | 0.00 | 0.00 | 0.00 | 76 | 1013.9 |
| 20260905180034 | 31 | 89 | 0.0 | 0.0 | 0.00 | 0.00 | 0.00 | 76 | 1014.0 |
| 20260905175533 | 31 | 86 | 0.0 | 0.0 | 0.00 | 0.00 | 0.00 | 73 | 1014.0 |
| 20260905175029 | 32 | 94 | 0.0 | 0.0 | 0.00 | 0.00 | 0.00 | 71 | 1014.1 |
| 20260905174524 | 32 | 87 | 0.0 | 0.0 | 0.00 | 0.00 | 0.00 | 68 | 1013.9 |
| 20260905174020 | 32 | 85 | 0.0 | 1.6 | 0.00 | 0.00 | 0.00 | 68 | 1014.0 |
| 20260905173516 | 33 | 85 | 0.0 | 1.6 | 0.00 | 0.00 | 0.00 | 65 | 1014.1 |
| 20260905173011 | 32 | 277 | 1.6 | 3.2 | 0.00 | 0.00 | 0.00 | 67 | 1014.1 |
| 20260905172509 | 32 | 58 | 0.0 | 1.6 | 0.00 | 0.00 | 0.00 | 69 | 1014.2 |
| 20260905172006 | 31 | 354 | 1.6 | 1.6 | 0.00 | 0.00 | 0.00 | 72 | 1014.2 |
| 20260905171502 | 31 | 296 | 3.2 | 3.2 | 0.00 | 0.00 | 0.00 | 72 | 1014.3 |
| 20260905170958 | 31 | 268 | 4.8 | 4.8 | 0.00 | 0.00 | 0.00 | 72 | 1014.4 |
| 20260905170454 | 31 | 7 | 4.8 | 6.4 | 0.00 | 0.00 | 0.00 | 71 | 1014.4 |
| 20260905165953 | 32 | 315 | 3.2 | 6.4 | 0.00 | 0.00 | 0.00 | 69 | 1014.2 |
| 20260905165448 | 32 | 103 | 0.0 | 1.6 | 0.00 | 0.00 | 0.00 | 71 | 1014.4 |
| 20260905164943 | 31 | 107 | 0.0 | 1.6 | 0.00 | 0.00 | 0.00 | 69 | 1014.2 |
| 20260905164437 | 30 | 330 | 3.2 | 3.2 | 0.00 | 0.00 | 0.00 | 70 | 1014.6 |
| 20260905163932 | 30 | 14 | 1.6 | 3.2 | 0.00 | 0.00 | 0.00 | 76 | 1014.5 |
| 20260905163429 | 30 | 170 | 1.6 | 1.6 | 0.00 | 0.00 | 0.00 | 77 | 1014.6 |
| 20260905162926 | 30 | 277 | 6.4 | 6.4 | 0.00 | 0.00 | 0.00 | 74 | 1014.7 |
| 20260905162426 | 31 | 282 | 3.2 | 4.8 | 0.00 | 0.00 | 0.00 | 72 | 1014.7 |
| 20260905161921 | 32 | 203 | 1.6 | 6.4 | 0.00 | 0.00 | 0.00 | 68 | 1014.7 |
| 20260905161420 | 31 | 105 | 0.0 | 1.6 | 0.00 | 0.00 | 0.00 | 76 | 1014.6 |
| 20260905160918 | 30 | 92 | 0.0 | 0.0 | 0.00 | 0.00 | 0.00 | 80 | 1014.7 |
| 20260905160412 | 30 | 84 | 0.0 | 1.6 | 0.00 | 0.00 | 0.00 | 78 | 1014.7 |
| 20260905155912 | 30 | 94 | 1.6 | 3.2 | 0.00 | 0.00 | 0.00 | 75 | 1014.5 |
| 20260905155412 | 30 | 177 | 1.6 | 6.4 | 0.00 | 0.00 | 0.00 | 74 | 1014.6 |
| 20260905154910 | 31 | 281 | 3.2 | 11.3 | 0.00 | 0.00 | 0.00 | 71 | 1014.7 |
| 20260905154407 | 31 | 340 | 1.6 | 6.4 | 0.00 | 0.00 | 0.00 | 72 | 1014.6 |
| 20260905153902 | 30 | 250 | 3.2 | 9.7 | 0.00 | 0.00 | 0.00 | 75 | 1014.5 |
| 20260905153358 | 30 | 261 | 1.6 | 1.6 | 0.00 | 0.00 | 0.00 | 75 | 1014.6 |
| 20260905152858 | 30 | 276 | 1.6 | 3.2 | 0.00 | 0.00 | 0.00 | 75 | 1014.5 |
| 20260905152358 | 30 | 252 | 1.6 | 3.2 | 0.00 | 0.00 | 0.00 | 74 | 1014.6 |
| 20260905151853 | 30 | 264 | 3.2 | 4.8 | 0.00 | 0.00 | 0.00 | 74 | 1014.5 |
| 20260905151349 | 30 | 117 | 0.0 | 3.2 | 0.00 | 0.00 | 0.00 | 79 | 1014.5 |
| 20260905150848 | 30 | 197 | 3.2 | 3.2 | 0.00 | 0.00 | 0.00 | 78 | 1014.7 |
| 20260905150343 | 30 | 298 | 4.8 | 4.8 | 0.00 | 0.00 | 0.00 | 75 | 1014.5 |
| 20260905145840 | 31 | 215 | 3.2 | 4.8 | 0.00 | 0.00 | 0.00 | 73 | 1014.5 |
| 20260905145340 | 32 | 212 | 3.2 | 4.8 | 0.00 | 0.00 | 0.00 | 71 | 1014.5 |
| 20260905144839 | 31 | 97 | 1.6 | 3.2 | 0.00 | 0.00 | 0.00 | 76 | 1014.5 |
| 20260905144335 | 30 | 58 | 1.6 | 3.2 | 0.00 | 0.00 | 0.00 | 76 | 1014.6 |
| 20260905143833 | 30 | 226 | 1.6 | 1.6 | 0.00 | 0.00 | 0.00 | 78 | 1014.5 |
| 20260905143328 | 29 | 93 | 0.0 | 0.0 | 0.00 | 0.00 | 0.00 | 81 | 1014.7 |
| 20260905142827 | 30 | 317 | 1.6 | 3.2 | 0.00 | 0.00 | 0.00 | 78 | 1014.4 |
| 20260905142321 | 30 | 110 | 0.0 | 3.2 | 0.00 | 0.00 | 0.00 | 77 | 1014.5 |
| 20260905141817 | 31 | 204 | 3.2 | 3.2 | 0.00 | 0.00 | 0.00 | 77 | 1014.4 |
| 20260905141313 | 30 | 100 | 0.0 | 1.6 | 0.00 | 0.00 | 0.00 | 82 | 1014.7 |
| 20260905140809 | 30 | 269 | 1.6 | 6.4 | 0.00 | 0.00 | 0.00 | 79 | 1014.5 |
| 20260905140308 | 30 | 122 | 1.6 | 3.2 | 0.00 | 0.00 | 0.00 | 81 | 1014.5 |
| 20260905135807 | 30 | 92 | 0.0 | 0.0 | 0.00 | 0.00 | 0.00 | 81 | 1014.4 |
| 20260905135306 | 30 | 86 | 0.0 | 1.6 | 0.00 | 0.00 | 0.00 | 79 | 1014.2 |
| 20260905134804 | 30 | 103 | 0.0 | 0.0 | 0.00 | 0.00 | 0.00 | 80 | 1014.2 |
| 20260905134302 | 30 | 96 | 0.0 | 0.0 | 0.00 | 0.00 | 0.00 | 83 | 1014.3 |
| 20260905133757 | 30 | 123 | 0.0 | 1.6 | 0.00 | 0.00 | 0.00 | 81 | 1014.1 |
| 20260905133252 | 30 | 98 | 0.0 | 1.6 | 0.00 | 0.00 | 0.00 | 82 | 1014.3 |
| 20260905132751 | 30 | 93 | 0.0 | 0.0 | 0.00 | 0.00 | 0.00 | 85 | 1014.4 |
| 20260905132241 | 28 | 87 | 0.0 | 0.0 | 0.00 | 0.00 | 0.00 | 88 | 1014.3 |
| 20260905131735 | 28 | 86 | 0.0 | 1.6 | 0.00 | 0.00 | 0.00 | 94 | 1014.1 |
| 20260905131231 | 27 | 85 | 0.0 | 0.0 | 0.00 | 0.00 | 0.00 | 97 | 1014.2 |
| 20260905130726 | 26 | 84 | 0.0 | 0.0 | 0.00 | 0.00 | 0.00 | 97 | 1014.2 |
| 20260905130225 | 26 | 108 | 0.0 | 0.0 | 0.00 | 0.00 | 0.00 | 97 | 1014.2 |
| 20260905125720 | 26 | 103 | 0.0 | 0.0 | 0.00 | 0.00 | 0.00 | 98 | 1014.2 |
| 20260905125215 | 26 | 78 | 0.0 | 0.0 | 0.00 | 0.00 | 0.00 | 98 | 1014.3 |
| 20260905124712 | 26 | 105 | 0.0 | 0.0 | 0.00 | 0.00 | 0.00 | 98 | 1014.0 |
| 20260905124208 | 26 | 106 | 0.0 | 0.0 | 0.00 | 0.00 | 0.00 | 99 | 1014.1 |
| 20260905123708 | 25 | 83 | 0.0 | 0.0 | 0.00 | 0.00 | 0.00 | 98 | 1014.1 |
| 20260905123205 | 25 | 87 | 0.0 | 0.0 | 0.00 | 0.00 | 0.00 | 98 | 1014.1 |
| 20260905122704 | 25 | 64 | 0.0 | 0.0 | 0.00 | 0.00 | 0.00 | 99 | 1014.2 |
| 20260905122200 | 25 | 90 | 0.0 | 0.0 | 0.00 | 0.00 | 0.00 | 99 | 1014.1 |
| 20260905121700 | 25 | 107 | 0.0 | 0.0 | 0.00 | 0.00 | 0.00 | 98 | 1014.3 |
| 20260905121155 | 25 | 102 | 0.0 | 0.0 | 0.00 | 0.00 | 0.00 | 99 | 1014.0 |
| 20260905120654 | 25 | 110 | 0.0 | 0.0 | 0.00 | 0.00 | 0.00 | 99 | 1014.0 |
| 20260905120150 | 24 | 94 | 0.0 | 0.0 | 0.00 | 0.00 | 0.00 | 99 | 1014.0 |
| 20260905115649 | 24 | 95 | 0.0 | 0.0 | 0.00 | 0.00 | 0.00 | 99 | 1013.9 |
| 20260905115144 | 23 | 95 | 0.0 | 0.0 | 0.00 | 0.00 | 0.00 | 99 | 1013.9 |
| 20260905114644 | 23 | 95 | 0.0 | 0.0 | 0.00 | 0.00 | 0.00 | 99 | 1013.8 |
| 20260905114142 | 23 | 95 | 0.0 | 0.0 | 0.00 | 0.00 | 0.00 | 99 | 1013.8 |
| 20260905113637 | 23 | 95 | 0.0 | 0.0 | 0.00 | 0.00 | 0.00 | 98 | 1013.8 |
| 20260905113133 | 23 | 95 | 0.0 | 0.0 | 0.00 | 0.00 | 0.00 | 98 | 1013.6 |
| 20260905112627 | 24 | 98 | 0.0 | 0.0 | 0.00 | 0.00 | 0.00 | 98 | 1013.5 |
| 20260905112124 | 24 | 98 | 0.0 | 0.0 | 0.00 | 0.00 | 0.00 | 98 | 1013.7 |
| 20260905111623 | 24 | 91 | 0.0 | 0.0 | 0.00 | 0.00 | 0.00 | 98 | 1013.7 |
| 20260905111122 | 24 | 91 | 0.0 | 0.0 | 0.00 | 0.00 | 0.00 | 98 | 1013.7 |
| 20260905110622 | 24 | 92 | 0.0 | 0.0 | 0.00 | 0.00 | 0.00 | 98 | 1013.6 |
| 20260905110117 | 24 | 91 | 0.0 | 0.0 | 0.00 | 0.00 | 0.00 | 98 | 1013.5 |
| 20260905105612 | 24 | 89 | 0.0 | 0.0 | 0.00 | 0.00 | 0.00 | 98 | 1013.5 |
| 20260905105111 | 23 | 90 | 0.0 | 0.0 | 0.00 | 0.00 | 0.00 | 98 | 1013.6 |
| 20260905104607 | 23 | 90 | 0.0 | 0.0 | 0.00 | 0.00 | 0.00 | 98 | 1013.4 |
| 20260905104106 | 24 | 90 | 0.0 | 0.0 | 0.00 | 0.00 | 0.00 | 98 | 1013.4 |
| 20260905103556 | 24 | 97 | 0.0 | 0.0 | 0.00 | 0.00 | 0.00 | 98 | 1013.3 |
| 20260905103052 | 23 | 88 | 0.0 | 0.0 | 0.00 | 0.00 | 0.00 | 98 | 1013.5 |
| 20260905102547 | 24 | 86 | 0.0 | 0.0 | 0.00 | 0.00 | 0.00 | 98 | 1013.4 |
| 20260905102044 | 24 | 102 | 0.0 | 0.0 | 0.00 | 0.00 | 0.00 | 98 | 1013.4 |
| 20260905101542 | 24 | 83 | 0.0 | 0.0 | 0.00 | 0.00 | 0.00 | 98 | 1013.2 |
| 20260905101040 | 24 | 90 | 0.0 | 0.0 | 0.00 | 0.00 | 0.00 | 98 | 1013.4 |
| 20260905100532 | 24 | 89 | 0.0 | 0.0 | 0.00 | 0.00 | 0.00 | 98 | 1013.3 |
| 20260905100031 | 24 | 89 | 0.0 | 0.0 | 0.00 | 0.00 | 0.00 | 98 | 1013.4 |
| 20260905095526 | 24 | 103 | 0.0 | 0.0 | 0.00 | 0.00 | 0.00 | 98 | 1013.3 |
| 20260905095021 | 24 | 103 | 0.0 | 0.0 | 0.00 | 0.00 | 0.00 | 98 | 1013.4 |
| 20260905094516 | 24 | 103 | 0.0 | 0.0 | 0.00 | 0.00 | 0.00 | 98 | 1013.4 |
| 20260905094015 | 24 | 103 | 0.0 | 0.0 | 0.00 | 0.00 | 0.00 | 98 | 1013.4 |
| 20260905093510 | 24 | 45 | 0.0 | 0.0 | 0.00 | 0.00 | 0.00 | 98 | 1013.3 |
| 20260905093007 | 24 | 98 | 0.0 | 0.0 | 0.00 | 0.00 | 0.00 | 98 | 1013.4 |
| 20260905092506 | 24 | 98 | 0.0 | 0.0 | 0.00 | 0.00 | 0.00 | 98 | 1013.2 |
| 20260905092002 | 24 | 93 | 0.0 | 0.0 | 0.00 | 0.00 | 0.00 | 98 | 1013.2 |
| 20260905091501 | 24 | 92 | 0.0 | 0.0 | 0.00 | 0.00 | 0.00 | 98 | 1013.3 |
| 20260905090956 | 24 | 93 | 0.0 | 0.0 | 0.00 | 0.00 | 0.00 | 98 | 1013.3 |
| 20260905090451 | 24 | 93 | 0.0 | 0.0 | 0.00 | 0.00 | 0.00 | 98 | 1013.3 |
| 20260905085950 | 24 | 88 | 0.0 | 0.0 | 0.00 | 0.00 | 0.00 | 98 | 1013.2 |
| 20260905085450 | 24 | 88 | 0.0 | 0.0 | 0.00 | 0.00 | 0.00 | 98 | 1013.3 |
| 20260905084946 | 24 | 87 | 0.0 | 0.0 | 0.00 | 0.00 | 0.00 | 98 | 1013.4 |
| 20260905084445 | 24 | 90 | 0.0 | 0.0 | 0.00 | 0.00 | 0.00 | 98 | 1013.2 |
| 20260905083945 | 24 | 90 | 0.0 | 0.0 | 0.00 | 0.00 | 0.00 | 98 | 1013.1 |
| 20260905083441 | 24 | 91 | 0.0 | 0.0 | 0.00 | 0.00 | 0.00 | 98 | 1013.2 |
| 20260905082936 | 24 | 91 | 0.0 | 0.0 | 0.00 | 0.00 | 0.00 | 98 | 1013.1 |
| 20260905082432 | 24 | 90 | 0.0 | 0.0 | 0.00 | 0.00 | 0.00 | 98 | 1013.0 |
| 20260905081928 | 24 | 93 | 0.0 | 0.0 | 0.00 | 0.00 | 0.00 | 98 | 1012.9 |
| 20260905081427 | 24 | 92 | 0.0 | 0.0 | 0.00 | 0.00 | 0.00 | 98 | 1013.1 |
| 20260905080926 | 24 | 92 | 0.0 | 0.0 | 0.00 | 0.00 | 0.00 | 98 | 1013.1 |
| 20260905080421 | 24 | 85 | 0.0 | 0.0 | 0.00 | 0.00 | 0.00 | 98 | 1013.1 |
| 20260905075920 | 25 | 91 | 0.0 | 0.0 | 0.00 | 0.00 | 0.00 | 98 | 1012.9 |
| 20260905075415 | 24 | 77 | 0.0 | 0.0 | 0.00 | 0.00 | 0.00 | 98 | 1013.2 |
| 20260905074914 | 24 | 77 | 0.0 | 0.0 | 0.00 | 0.00 | 0.00 | 98 | 1013.2 |
| 20260905074410 | 24 | 82 | 0.0 | 0.0 | 0.00 | 0.00 | 0.00 | 98 | 1013.4 |
| 20260905073905 | 24 | 102 | 0.0 | 0.0 | 0.00 | 0.00 | 0.00 | 98 | 1013.2 |
| 20260905073400 | 24 | 102 | 0.0 | 0.0 | 0.00 | 0.00 | 0.00 | 98 | 1013.0 |
| 20260905072856 | 24 | 102 | 0.0 | 0.0 | 0.00 | 0.00 | 0.00 | 98 | 1013.1 |
| 20260905072350 | 24 | 105 | 0.0 | 0.0 | 0.00 | 0.00 | 0.00 | 98 | 1013.1 |
| 20260905071846 | 24 | 105 | 0.0 | 0.0 | 0.00 | 0.00 | 0.00 | 98 | 1013.1 |
| 20260905071343 | 24 | 105 | 0.0 | 0.0 | 0.00 | 0.00 | 0.00 | 97 | 1013.2 |
| 20260905070842 | 24 | 105 | 0.0 | 0.0 | 0.00 | 0.00 | 0.00 | 98 | 1012.9 |
| 20260905070339 | 24 | 105 | 0.0 | 0.0 | 0.00 | 0.00 | 0.00 | 98 | 1013.1 |
| 20260905065838 | 24 | 90 | 0.0 | 0.0 | 0.00 | 0.00 | 0.00 | 97 | 1013.1 |
| 20260905065336 | 24 | 93 | 0.0 | 0.0 | 0.00 | 0.00 | 0.00 | 97 | 1013.1 |
| 20260905064832 | 24 | 93 | 0.0 | 0.0 | 0.00 | 0.00 | 0.00 | 97 | 1013.0 |
| 20260905064328 | 24 | 93 | 0.0 | 0.0 | 0.00 | 0.00 | 0.00 | 97 | 1013.0 |
| 20260905063826 | 24 | 93 | 0.0 | 0.0 | 0.00 | 0.00 | 0.00 | 97 | 1012.9 |
| 20260905063323 | 24 | 93 | 0.0 | 0.0 | 0.00 | 0.00 | 0.00 | 97 | 1012.7 |
| 20260905062819 | 24 | 93 | 0.0 | 0.0 | 0.00 | 0.00 | 0.00 | 97 | 1012.7 |
| 20260905062318 | 25 | 93 | 0.0 | 0.0 | 0.00 | 0.00 | 0.00 | 97 | 1012.8 |
| 20260905061814 | 25 | 93 | 0.0 | 0.0 | 0.00 | 0.00 | 0.00 | 97 | 1013.2 |
| 20260905061313 | 25 | 93 | 0.0 | 0.0 | 0.00 | 0.00 | 0.00 | 97 | 1013.1 |
| 20260905060808 | 25 | 89 | 0.0 | 0.0 | 0.00 | 0.00 | 0.00 | 97 | 1013.2 |
| 20260905060304 | 25 | 89 | 0.0 | 0.0 | 0.00 | 0.00 | 0.00 | 97 | 1013.1 |
| 20260905055803 | 25 | 89 | 0.0 | 0.0 | 0.00 | 0.00 | 0.00 | 97 | 1013.2 |
| 20260905055258 | 25 | 89 | 0.0 | 0.0 | 0.00 | 0.00 | 0.00 | 97 | 1013.2 |
| 20260905054753 | 25 | 89 | 0.0 | 0.0 | 0.00 | 0.00 | 0.00 | 97 | 1013.2 |
| 20260905054250 | 25 | 102 | 0.0 | 0.0 | 0.00 | 0.00 | 0.00 | 97 | 1013.1 |
| 20260905053749 | 25 | 102 | 0.0 | 0.0 | 0.00 | 0.00 | 0.00 | 97 | 1013.2 |
| 20260905053244 | 25 | 102 | 0.0 | 0.0 | 0.00 | 0.00 | 0.00 | 97 | 1013.1 |
| 20260905052743 | 25 | 102 | 0.0 | 0.0 | 0.00 | 0.00 | 0.00 | 97 | 1013.2 |
| 20260905052238 | 25 | 103 | 0.0 | 0.0 | 0.00 | 0.00 | 0.00 | 96 | 1013.3 |
| 20260905051738 | 25 | 110 | 0.0 | 0.0 | 0.00 | 0.00 | 0.00 | 96 | 1013.4 |
| 20260905051235 | 25 | 95 | 0.0 | 0.0 | 0.00 | 0.00 | 0.00 | 96 | 1013.3 |
| 20260905050731 | 25 | 97 | 0.0 | 0.0 | 0.00 | 0.00 | 0.00 | 96 | 1013.5 |
| 20260905050227 | 25 | 102 | 0.0 | 0.0 | 0.00 | 0.00 | 0.00 | 96 | 1013.4 |
| 20260905045727 | 25 | 101 | 0.0 | 0.0 | 0.00 | 0.08 | 0.08 | 96 | 1013.7 |
| 20260905045223 | 25 | 101 | 0.0 | 0.0 | 0.00 | 0.08 | 0.08 | 96 | 1013.6 |
| 20260905044717 | 25 | 101 | 0.0 | 0.0 | 0.00 | 0.08 | 0.08 | 96 | 1013.7 |
| 20260905044213 | 25 | 102 | 0.0 | 0.0 | 0.00 | 0.08 | 0.08 | 96 | 1013.8 |
| 20260905043712 | 25 | 130 | 0.0 | 0.0 | 0.00 | 0.08 | 0.08 | 96 | 1013.9 |
| 20260905043207 | 25 | 89 | 0.0 | 0.0 | 0.00 | 0.08 | 0.08 | 96 | 1014.0 |
| 20260905042707 | 25 | 81 | 0.0 | 0.0 | 0.00 | 0.08 | 0.08 | 96 | 1013.9 |
| 20260905042206 | 25 | 81 | 0.0 | 0.0 | 0.00 | 0.08 | 0.08 | 96 | 1013.8 |
| 20260905041702 | 25 | 81 | 0.0 | 0.0 | 0.00 | 0.08 | 0.08 | 96 | 1013.9 |
| 20260905041157 | 25 | 81 | 0.0 | 0.0 | 0.00 | 0.08 | 0.08 | 96 | 1014.1 |
| 20260905040652 | 25 | 81 | 0.0 | 0.0 | 0.00 | 0.08 | 0.08 | 95 | 1013.9 |
| 20260905040151 | 25 | 81 | 0.0 | 0.0 | 0.00 | 0.08 | 0.08 | 95 | 1013.9 |
| 20260905035645 | 25 | 81 | 0.0 | 0.0 | 0.00 | 0.08 | 0.08 | 95 | 1014.2 |
| 20260905035142 | 25 | 43 | 0.0 | 0.0 | 0.00 | 0.08 | 0.08 | 95 | 1014.2 |
| 20260905034638 | 25 | 90 | 0.0 | 1.6 | 0.00 | 0.08 | 0.08 | 95 | 1014.2 |
| 20260905034137 | 25 | 101 | 0.0 | 0.0 | 0.00 | 0.08 | 0.08 | 95 | 1014.4 |
| 20260905033636 | 25 | 113 | 0.0 | 0.0 | 0.00 | 0.08 | 0.08 | 95 | 1014.4 |
| 20260905033132 | 25 | 113 | 0.0 | 0.0 | 0.00 | 0.08 | 0.08 | 95 | 1014.3 |
| 20260905032632 | 25 | 107 | 0.0 | 0.0 | 0.00 | 0.08 | 0.08 | 95 | 1014.3 |
| 20260905032131 | 25 | 109 | 0.0 | 0.0 | 0.00 | 0.08 | 0.08 | 95 | 1014.2 |
| 20260905031628 | 25 | 108 | 0.0 | 0.0 | 0.00 | 0.08 | 0.08 | 95 | 1014.4 |
| 20260905031124 | 25 | 109 | 0.0 | 0.0 | 0.00 | 0.08 | 0.08 | 95 | 1014.3 |
| 20260905030624 | 25 | 113 | 0.0 | 0.0 | 0.00 | 0.08 | 0.08 | 95 | 1014.3 |
| 20260905030119 | 25 | 112 | 0.0 | 0.0 | 0.00 | 0.08 | 0.08 | 95 | 1014.2 |
| 20260905025614 | 25 | 104 | 0.0 | 1.6 | 0.00 | 0.08 | 0.08 | 95 | 1014.5 |
| 20260905025109 | 25 | 114 | 0.0 | 1.6 | 0.00 | 0.08 | 0.08 | 94 | 1014.5 |
| 20260905024605 | 25 | 88 | 0.0 | 0.0 | 0.00 | 0.08 | 0.08 | 94 | 1014.6 |
| 20260905024100 | 25 | 88 | 0.0 | 0.0 | 0.00 | 0.08 | 0.08 | 94 | 1014.6 |
| 20260905023555 | 25 | 87 | 0.0 | 0.0 | 0.00 | 0.08 | 0.08 | 94 | 1014.6 |
| 20260905023050 | 26 | 86 | 0.0 | 0.0 | 0.00 | 0.08 | 0.08 | 94 | 1014.7 |
| 20260905022549 | 26 | 86 | 0.0 | 0.0 | 0.00 | 0.08 | 0.08 | 94 | 1014.5 |
| 20260905022045 | 25 | 86 | 0.0 | 0.0 | 0.00 | 0.08 | 0.08 | 94 | 1014.6 |
| 20260905021544 | 26 | 86 | 0.0 | 0.0 | 0.00 | 0.08 | 0.08 | 94 | 1014.4 |
| 20260905021040 | 26 | 88 | 0.0 | 0.0 | 0.00 | 0.08 | 0.08 | 93 | 1014.4 |
| 20260905020539 | 26 | 91 | 0.0 | 0.0 | 0.00 | 0.08 | 0.08 | 93 | 1014.3 |
| 20260905020035 | 26 | 91 | 0.0 | 0.0 | 0.00 | 0.08 | 0.08 | 93 | 1014.2 |
| 20260905015532 | 26 | 91 | 0.0 | 0.0 | 0.00 | 0.08 | 0.08 | 92 | 1014.2 |
| 20260905015027 | 26 | 98 | 0.0 | 0.0 | 0.00 | 0.08 | 0.08 | 92 | 1014.0 |
| 20260905014522 | 26 | 98 | 0.0 | 0.0 | 0.00 | 0.08 | 0.08 | 92 | 1014.0 |
| 20260905014018 | 26 | 98 | 0.0 | 0.0 | 0.00 | 0.08 | 0.08 | 92 | 1014.0 |
| 20260905013514 | 26 | 98 | 0.0 | 0.0 | 0.00 | 0.08 | 0.08 | 91 | 1014.0 |
| 20260905013009 | 26 | 69 | 0.0 | 0.0 | 0.00 | 0.08 | 0.08 | 91 | 1014.0 |